Dewpoint
68 68 67 67 67 67 68 69 70 71 71 72 73 73 73 74 75 75 75 75 75 75 75 75 76 76 76 76 76 76 76 75 74 73 73 73 72 70 69 69 69 70
68 68 69 68 68 68 67 68 70 71 71 71 72 73 73 74 74 74 75 75 75 75 75 75 75 76 76 75 76 75 75 75 75 74 73 73 73 72 71 70 69 69
68 68 67 67 66 66 65 67 69 70 70 71 71 72 73 73 73 74 75 75 75 75 75 75 75 75 75 75 75 75 75 75 75 74 75 73 73 73 73 71 71 71
68 68 67 67 67 66 66 66 67 68 69 70 70 71 72 72 73 74 74 76 75 75 75 75 74 74 75 75 75 75 75 75 75 75 75 74 74 73 73 73 73 73
67 68 68 67 68 68 66 65 66 67 68 69 70 72 73 73 73 73 74 75 75 75 75 75 74 74 75 75 75 75 75 74 75 75 75 74 74 74 73 73 73 73
68 68 68 68 68 68 66 65 65 66 67 68 69 71 72 72 73 73 74 74 74 74 74 74 74 74 74 74 74 74 74 74 74 74 74 74 74 74 73 74 73 73
67 67 67 67 67 68 67 66 65 67 67 68 70 70 72 72 72 73 73 74 74 75 74 74 75 75 74 74 74 74 74 75 75 74 74 74 74 74 74 74 74 74
67 67 67 67 67 67 67 66 65 66 66 69 69 70 71 71 72 72 73 74 74 75 75 74 75 75 74 74 74 74 73 73 74 74 74 74 74 74 74 74 74 74
68 68 67 67 66 66 66 66 65 65 66 67 68 70 72 72 72 72 73 73 74 74 75 75 74 74 74 74 74 74 73 73 74 74 74 74 73 74 74 74 74 74
68 68 67 66 66 66 66 66 66 66 66 66 67 69 71 72 72 72 73 73 73 74 74 74 74 74 74 74 74 74 74 74 74 74 74 74 74 74 74 74 74 74
67 67 67 67 66 66 66 66 66 66 67 65 65 66 69 71 72 73 72 73 72 73 73 74 74 74 74 74 74 74 74 73 74 74 74 74 74 74 74 74 74 74
68 67 67 67 67 66 66 66 66 66 67 67 65 65 66 69 71 72 72 72 72 72 73 73 74 74 74 74 74 74 74 74 74 74 74 74 74 73 74 74 74 74
67 68 68 67 68 67 67 66 66 65 66 67 68 66 65 65 68 70 72 71 72 72 72 73 73 74 74 74 74 74 74 74 73 73 74 74 74 73 73 73 73 74
68 68 68 68 68 69 68 67 66 66 66 66 68 68 66 65 65 67 69 71 71 71 72 72 73 73 74 74 74 74 74 74 74 73 73 73 74 74 74 73 73 73
69 69 69 69 69 69 69 68 67 67 67 67 67 67 67 67 66 65 66 68 70 71 71 71 71 72 72 73 74 74 74 73 74 74 73 73 73 73 74 74 74 73
69 70 69 70 69 69 69 69 68 68 67 66 66 66 68 69 68 68 66 66 67 69 70 70 71 71 71 68 69 73 74 73 74 74 74 74 74 74 73 73 73 73
69 69 70 70 70 69 69 69 69 68 68 68 67 67 67 68 69 68 68 67 66 67 68 69 70 70 67 65 65 67 72 74 73 74 74 74 73 74 73 73 73 74
69 69 70 70 70 70 70 70 69 69 69 69 68 67 67 67 67 68 69 68 67 67 67 68 69 67 64 64 64 64 67 73 73 73 73 73 73 73 73 73 73 73
69 69 70 70 70 70 70 70 70 69 69 68 67 67 67 67 67 67 68 68 68 68 67 67 68 65 63 62 63 63 64 69 73 73 73 73 73 73 73 74 74 74
69 69 69 70 70 70 70 70 70 69 69 68 68 68 68 67 66 67 67 68 68 68 68 68 68 65 62 61 61 62 63 65 72 72 73 73 73 73 73 73 73 73
70 70 70 70 70 70 70 70 70 70 69 69 68 68 68 68 67 67 67 67 67 67 68 67 67 63 60 60 60 60 61 63 71 72 72 72 73 73 73 73 74 73
70 70 70 70 70 71 70 70 70 70 70 70 69 68 68 68 68 67 67 66 66 66 66 67 67 61 60 59 59 59 60 67 71 72 72 72 72 73 73 74 74 74
71 71 71 71 71 71 71 70 71 71 70 71 70 69 68 68 68 67 68 67 67 67 67 67 66 63 58 57 58 58 60 68 70 71 72 72 72 72 73 73 73 74
73 72 72 72 72 71 71 71 71 71 71 71 70 69 68 68 68 68 68 68 67 67 66 67 67 64 57 56 57 57 62 68 69 70 71 71 72 72 72 73 73 74
73 74 73 72 72 72 72 72 72 72 71 71 70 70 70 70 70 69 68 69 68 67 69 67 67 65 58 56 56 56 61 69 70 70 70 71 71 72 72 73 73 74
72 73 74 73 73 73 73 72 72 72 72 71 71 71 70 70 70 70 69 69 69 68 68 68 68 68 66 56 55 54 57 69 70 70 70 70 71 71 71 72 72 73